Regional Weather Roundup
Issued by NWS

Home | Current Version | Previous Version | Graphics & Text | Print | Product List | Glossary On
Versions: 1 2 3 4 5 6 7 8 9 10 11 12 13 14 15 16 17 18 19 20 21 22 23 24 25 26 27 28 29 30 31 32 33 34 35 36 37 38 39 40 41 42 43 44 45 46 47 48 49 50
817
ASUS43 KMPX 271801
RWRMN
WEATHER ROUNDUP FOR MINNESOTA
NATIONAL WEATHER SERVICE TWIN CITIES/CHANHASSEN MN
100 PM CDT MON MAR 27 2017


NOTE: "FAIR" INDICATES FEW OR NO CLOUDS BELOW 12,000 FEET WITH NO
SIGNIFICANT WEATHER AND/OR OBSTRUCTIONS TO VISIBILITY. N/A MEANS
CURRENT SKY AND/OR WEATHER CONDITIONS ARE NOT AVAILABLE.

MNZ060>063-068>070-271900-
   Twin Cities Metro

CITY           SKY/WX    TMP DP  RH WIND       PRES   REMARKS
TWIN CITIES    MOSUNNY   53  34  48 N6        29.97F
6HR MIN TEMP:  38; 6HR MAX TEMP:  53;

ST PAUL        SUNNY     52  36  54 NE9       29.97F
CRYSTAL        SUNNY     53  32  44 VRB7      29.96S
EDEN PRAIRIE   MOSUNNY   54  35  48 N7        29.96F
6HR MIN TEMP:  39; 6HR MAX TEMP:  54;

$$
MNZ001>005-007-008-013>017-022>024-027-028-271900-
   Northwest Minnesota

CITY           SKY/WX    TMP DP  RH WIND       PRES   REMARKS
THIEF RVR FALL FOG       39  37  93 CALM      30.01F VSB 3/4
PARK RAPIDS    SUNNY     52  34  50 SE5       29.96F
MAHNOMEN       FAIR      48  38  69 CALM      29.98F
$$
MNZ006-009>011-018-025>026-271900-
   North Central Minnesota

CITY           SKY/WX    TMP DP  RH WIND       PRES   REMARKS
BAUDETTE       SUNNY     49  34  56 SW3       29.99F
BIG FORK       SUNNY     52  34  50 NE5       29.98F
LONGVILLE      CLOUDY    50  34  53 CALM      29.97F
CRANE LAKE     SUNNY     46  30  53 NW3       30.00F
COOK           SUNNY     48  34  57 N3        29.99S
WALKER         FAIR      46  33  61 E5        29.98S
$$
MNZ012-019>021-037-271900-
   Northeast Minnesota

CITY           SKY/WX    TMP DP  RH WIND       PRES   REMARKS
HIBBING        SUNNY     47  34  60 N5        29.98S
SILVER BAY     CLOUDY    46  36  66 CALM      29.96R
GRAND MARAIS     N/A     40  34  79 VRB3      29.98R
$$
MNZ029>031-032-039>041-046>048-054>057-064-271900-
   West Central Minnesota

CITY           SKY/WX    TMP DP  RH WIND       PRES   REMARKS
WHEATON        SUNNY     52  37  58 SE6       30.00F
ALEXANDRIA     CLOUDY    50  35  56 E5        29.98F
WADENA         SUNNY     52  36  54 E7        29.97F
WILLMAR        FAIR      52  36  54 CALM      29.99F
$$
MNZ033>034-036-042>043-049>051-058-059-271900-
   Central Minnesota

CITY           SKY/WX    TMP DP  RH WIND       PRES   REMARKS
ST CLOUD       CLOUDY    49  37  63 VRB3      29.98R
6HR MIN TEMP:  32; 6HR MAX TEMP:  49;

BRAINERD       CLOUDY    50  33  52 W5        29.98S
$$
MNZ037-044-045-052-053-271900-
   East Central Minnesota

CITY           SKY/WX    TMP DP  RH WIND       PRES   REMARKS
PRINCETON      CLOUDY    52  39  62 NW6       29.98S
MORA           CLOUDY    48  36  61 N5        29.99S
CAMBRIDGE      CLOUDY    52  37  58 N3        29.96S
MOOSE LAKE     CLOUDY    45  34  65 E3        29.96S
CLOQUET        CLOUDY    46  34  61 NE3       29.96F
$$
MNZ071>073-080-081-089-090-097-098-271900-
   Southwest Minnesota

CITY           SKY/WX    TMP DP  RH WIND       PRES   REMARKS
REDWOOD FALLS  PTSUNNY   54  38  54 NE6       29.98S
JACKSON        CLOUDY    45  37  76 N5        29.98S
SLAYTON        CLOUDY    45  37  73 NW6       29.99S
$$
MNZ065>067-074>077-082>085-091>093-271900-
   South Central Minnesota

CITY           SKY/WX    TMP DP  RH WIND       PRES   REMARKS
ST JAMES       CLOUDY    46  39  76 CALM      29.99F
GLENCOE        PTSUNNY   51  41  68 N8        29.97S
$$
MNZ078>079-086>088-094>096-271900-
   Southeast Minnesota

CITY           SKY/WX    TMP DP  RH WIND       PRES   REMARKS
RED WING       CLOUDY    45  36  70 N6        29.97S
AUSTIN         CLOUDY    43  37  81 N6        29.96R
$$
ABBREVIATIONS USED IN REMARKS
   TC - TEMPERATURES IN CELSIUS
  WCI - WIND CHILL INDEX
   HX - HEAT INDEX
  VSB - VISIBILITY
$$




USA.gov is the U.S. government's official web portal to all federal, state and local government web resources and services.